AP893 Weather Reports


time (UTC)temp
C
wind
direction
speed
KPH
gust
KPH
rain 1hr
cm
rain 24hr
cm
rain mn
cm
humidity
%
barometer
mb
20260906150009 14 131 1.6 8.0 0.00 0.03 0.00 68 1017.9
20260906145009 13 160 1.6 9.7 0.00 0.03 0.00 73 1017.8
20260906144010 13 140 3.2 9.7 0.00 0.03 0.00 76 1017.5
20260906143009 12 173 1.6 9.7 0.00 0.03 0.00 80 1017.5
20260906142010 11 138 1.6 11.3 0.00 0.03 0.00 83 1017.5
20260906141010 11 186 1.6 8.0 0.00 0.03 0.00 85 1017.4
20260906140010 11 153 3.2 4.8 0.00 0.03 0.00 86 1017.3
20260906134010 11 165 1.6 4.8 0.00 0.03 0.00 87 1017.1
20260906132009 10 131 0.0 9.7 0.00 0.03 0.00 91 1017.0
20260906131009 10 0 0.0 0.0 0.00 0.03 0.00 92 1017.1
20260906130009 10 0 0.0 0.0 0.00 0.03 0.00 91 1017.1
20260906125009 10 0 0.0 0.0 0.00 0.03 0.00 91 1017.1
20260906124009 10 0 0.0 0.0 0.00 0.03 0.00 91 1017.1
20260906121009 10 0 0.0 0.0 0.00 0.03 0.00 91 1017.2
20260906120009 10 0 0.0 0.0 0.00 0.03 0.00 91 1017.2
20260906115010 10 0 0.0 0.0 0.00 0.03 0.00 91 1017.2
20260906114010 10 0 0.0 0.0 0.00 0.03 0.00 91 1017.2
20260906113009 10 0 0.0 0.0 0.00 0.03 0.00 90 1017.2
20260906112010 10 0 0.0 0.0 0.00 0.03 0.00 90 1017.1
20260906110009 10 0 0.0 0.0 0.00 0.03 0.00 90 1017.1
20260906105010 10 0 0.0 0.0 0.00 0.03 0.00 89 1017.1
20260906103011 11 0 0.0 0.0 0.00 0.03 0.00 88 1017.2
20260906102010 11 0 0.0 0.0 0.00 0.03 0.00 87 1017.2
20260906100010 11 0 0.0 0.0 0.00 0.03 0.00 85 1017.2
20260906095010 11 0 0.0 0.0 0.00 0.03 0.00 84 1017.3
20260906094010 11 0 0.0 0.0 0.00 0.03 0.00 84 1017.2
20260906091010 12 0 0.0 0.0 0.00 0.03 0.00 82 1017.3
20260906090010 12 0 0.0 0.0 0.00 0.03 0.00 82 1017.3
20260906085010 12 0 0.0 0.0 0.00 0.03 0.00 83 1017.3
20260906083010 12 0 0.0 0.0 0.00 0.03 0.00 82 1017.5
20260906081010 12 0 0.0 0.0 0.00 0.03 0.00 81 1017.5
20260906080010 12 0 0.0 0.0 0.00 0.03 0.00 80 1017.5
20260906075009 12 0 0.0 0.0 0.00 0.03 0.00 80 1017.5
20260906074010 12 0 0.0 0.0 0.00 0.03 0.00 79 1017.5
20260906072010 12 0 0.0 0.0 0.00 0.03 0.00 78 1017.7
20260906071011 12 0 0.0 0.0 0.00 0.03 0.00 77 1017.7
20260906070010 12 0 0.0 0.0 0.00 0.03 0.00 76 1017.5
20260906065010 13 0 0.0 0.0 0.00 0.03 0.03 76 1017.5
20260906064009 13 0 0.0 0.0 0.00 0.03 0.03 75 1017.7
20260906063010 13 0 0.0 0.0 0.00 0.03 0.03 74 1017.7
20260906062009 13 0 0.0 0.0 0.00 0.03 0.03 72 1017.8
20260906061010 13 0 0.0 0.0 0.00 0.03 0.03 71 1017.8
20260906060009 13 0 0.0 0.0 0.00 0.03 0.03 71 1017.8
20260906055009 14 0 0.0 0.0 0.00 0.03 0.03 70 1017.9
20260906054009 14 0 0.0 0.0 0.00 0.03 0.03 68 1017.9
20260906051010 15 0 0.0 0.0 0.00 0.03 0.03 64 1018.0
20260906050010 15 0 0.0 0.0 0.00 0.03 0.03 63 1018.0
20260906045009 16 0 0.0 0.0 0.00 0.03 0.03 62 1018.1
20260906044010 16 0 0.0 0.0 0.00 0.03 0.03 60 1018.1
20260906043010 16 0 0.0 0.0 0.00 0.03 0.03 58 1018.0
20260906042010 17 0 0.0 0.0 0.00 0.03 0.03 58 1018.0
20260906041010 17 0 0.0 0.0 0.00 0.03 0.03 56 1018.1
20260906035010 18 0 0.0 0.0 0.00 0.03 0.03 51 1018.0
20260906034009 18 0 0.0 0.0 0.00 0.03 0.03 50 1017.2
20260906033010 19 0 0.0 0.0 0.03 0.03 0.03 48 1017.9
20260906032009 20 0 0.0 0.0 0.03 0.03 0.03 47 1017.0
20260906031009 20 0 0.0 0.0 0.03 0.03 0.03 47 1017.0
20260906030013 20 0 0.0 0.0 0.03 0.03 0.03 46 1016.2
20260906025010 20 0 0.0 0.0 0.03 0.03 0.03 45 1017.7
20260906024010 21 0 0.0 0.0 0.03 0.03 0.03 43 1017.1
20260906023010 21 0 0.0 0.0 0.00 0.00 0.00 42 1017.7
20260906022009 22 0 0.0 0.0 0.00 0.00 0.00 41 1017.7
20260906021009 22 0 0.0 4.8 0.00 0.00 0.00 40 1017.7
20260906020009 22 273 0.0 9.7 0.00 0.00 0.00 39 1017.8
20260906015009 23 213 0.0 0.0 0.00 0.00 0.00 38 1017.8
20260906013009 23 213 0.0 0.0 0.00 0.00 0.00 36 1017.8
20260906010009 25 165 1.6 9.7 0.00 0.00 0.00 33 1017.8
20260906005009 25 289 1.6 11.3 0.00 0.00 0.00 31 1017.7
20260906004010 26 250 0.0 9.7 0.00 0.00 0.00 30 1017.7
20260906002010 26 296 3.2 12.9 0.00 0.00 0.00 30 1017.8
20260906000009 26 178 3.2 12.9 0.00 0.00 0.00 29 1017.7
20260905235011 26 146 1.6 11.3 0.00 0.00 0.00 30 1017.8
20260905230012 26 288 1.6 16.1 0.00 0.00 0.00 32 1017.9
20260905225010 25 145 1.6 12.9 0.00 0.00 0.00 32 1018.1
20260905223010 25 98 3.2 9.7 0.00 0.00 0.00 32 1018.3
20260905221010 26 216 1.6 19.3 0.00 0.00 0.00 32 1018.2
20260905220010 26 301 3.2 20.9 0.00 0.00 0.00 30 1018.3
20260905215010 26 215 1.6 12.9 0.00 0.00 0.00 30 1018.4
20260905214010 26 271 4.8 16.1 0.00 0.00 0.00 29 1018.3
20260905213010 26 254 0.0 11.3 0.00 0.00 0.00 30 1018.3
20260905212009 26 16 1.6 19.3 0.00 0.00 0.00 31 1018.3
20260905211009 26 320 0.0 9.7 0.00 0.00 0.00 31 1018.4
20260905205010 26 178 3.2 19.3 0.00 0.00 0.00 30 1018.3
20260905204010 26 162 3.2 14.5 0.00 0.00 0.00 31 1018.2
20260905203010 26 277 4.8 19.3 0.00 0.00 0.00 31 1018.3
20260905202010 26 339 1.6 14.5 0.00 0.00 0.00 32 1018.3
20260905200011 26 334 4.8 14.5 0.00 0.00 0.00 32 1018.4
20260905194010 26 34 4.8 16.1 0.00 0.00 0.00 32 1018.4
20260905193010 26 149 6.4 16.1 0.00 0.00 0.00 33 1018.4
20260905192010 26 97 1.6 19.3 0.00 0.00 0.00 33 1018.4
20260905191010 26 334 3.2 19.3 0.00 0.00 0.00 33 1018.5
20260905190010 25 285 6.4 16.1 0.00 0.00 0.00 34 1018.5
20260905185013 25 190 3.2 16.1 0.00 0.00 0.00 33 1018.6
20260905184010 25 295 6.4 19.3 0.00 0.00 0.00 34 1018.6
20260905183009 25 291 1.6 12.9 0.00 0.00 0.00 34 1018.5
20260905182010 25 69 4.8 11.3 0.00 0.00 0.00 36 1018.5
20260905181010 25 246 1.6 11.3 0.00 0.00 0.00 38 1018.4
20260905175009 23 61 0.0 14.5 0.00 0.00 0.00 41 1018.2
20260905174010 22 3 6.4 20.9 0.00 0.00 0.00 40 1018.1
20260905173010 22 1 3.2 12.9 0.00 0.00 0.00 42 1018.1
20260905172009 21 307 1.6 9.7 0.00 0.00 0.00 43 1018.1
20260905171010 21 355 1.6 11.3 0.00 0.00 0.00 44 1018.1
20260905165010 20 17 3.2 11.3 0.00 0.00 0.00 46 1018.1
20260905163010 20 227 0.0 4.8 0.00 0.00 0.00 52 1017.8
20260905162010 19 227 0.0 0.0 0.00 0.00 0.00 56 1017.8
20260905161010 18 227 0.0 0.0 0.00 0.00 0.00 58 1017.7
20260905155009 16 227 0.0 0.0 0.00 0.00 0.00 65 1017.7
20260905154009 16 227 0.0 0.0 0.00 0.00 0.00 67 1017.7
20260905152009 15 227 0.0 0.0 0.00 0.00 0.00 69 1017.5
20260905151010 14 227 0.0 0.0 0.00 0.00 0.00 70 1017.4